Location: Les Jeannots
(43.2262°N, 5.5774°E)
Time: 18:15:31
(UTC+00:00)

Cosmos 2322 Rocket - Pass Details

Date: 05 July 2020
Orbit: 832 x 851 km, 71.0° (Epoch: 12 August)

Event Time Altitude Azimuth Distance (km) Brightness Sun altitude
Rises 19:51:45 0° 204° (SSW) 3,363 5.2 -5.5°
Reaches altitude 10° 19:54:10 10° 205° (SSW) 2,433 4.5 -5.8°
Maximum altitude 19:59:45 86° 293° (WNW) 840 2.3 -6.6°
Drops below altitude 10° 20:05:24 10° 24° (NNE) 2,452 4.8 -7.4°
Sets 20:07:51 0° 25° (NNE) 3,392 5.6 -7.7°
